• en Belgique
  • Liste des pays
  • À 7 jours
  • Température de l'eau
  • Carte satellitaire
  • Carte météo
  • Widgets météo
  • user-avatar
    Se connecter

    Météo par heure à Ans

    Ce jour, 19 Août, Dimanche

    Heure Température Précipitation Vent Pression Humidité
    00:00 +15°C° 0 mm 1 m/s 752 mmHg 90%
    01:00 +15°C° 0 mm 1 m/s 752 mmHg 90%
    02:00 +15°C° 0 mm 1 m/s 752 mmHg 91%
    03:00 +14°C° 0 mm 1 m/s 752 mmHg 92%
    04:00 +15°C° 0 mm 2 m/s 752 mmHg 90%
    05:00 +15°C° 0 mm 2 m/s 752 mmHg 88%
    06:00 +16°C° 0 mm 2 m/s 752 mmHg 86%
    07:00 +18°C° 0 mm 2 m/s 752 mmHg 78%
    08:00 +19°C° 0 mm 3 m/s 752 mmHg 71%
    09:00 +21°C° 0 mm 3 m/s 752 mmHg 64%
    10:00 +22°C° 0 mm 3 m/s 752 mmHg 61%
    11:00 +25°C° 0 mm 4 m/s 752 mmHg 58%
    12:00 +26°C° 0 mm 4 m/s 751 mmHg 55%
    13:00 +26°C° 0 mm 4 m/s 751 mmHg 55%
    14:00 +26°C° 0 mm 4 m/s 751 mmHg 56%
    15:00 +27°C° 0 mm 4 m/s 750 mmHg 56%
    16:00 +26°C° 0 mm 3 m/s 750 mmHg 61%
    17:00 +25°C° 0 mm 3 m/s 750 mmHg 66%
    18:00 +24°C° 0 mm 3 m/s 750 mmHg 71%
    19:00 +22°C° 0 mm 3 m/s 750 mmHg 75%
    20:00 +21°C° 0 mm 2 m/s 750 mmHg 79%
    21:00 +20°C° 0 mm 2 m/s 751 mmHg 83%
    22:00 +19°C° 0 mm 2 m/s 750 mmHg 86%
    23:00 +19°C° 0 mm 3 m/s 750 mmHg 88%

    Demain, 20 Août, Lundi

    Heure Température Précipitation Vent Pression Humidité
    00:00 +18°C° 0 mm 3 m/s 750 mmHg 91%
    01:00 +18°C° 0 mm 3 m/s 750 mmHg 92%
    02:00 +18°C° 0 mm 3 m/s 750 mmHg 94%
    03:00 +18°C° 0 mm 3 m/s 750 mmHg 95%
    04:00 +18°C° 0 mm 3 m/s 750 mmHg 94%
    05:00 +18°C° 0 mm 3 m/s 750 mmHg 93%
    06:00 +18°C° 0 mm 2 m/s 750 mmHg 93%
    07:00 +19°C° 0,1 mm 2 m/s 751 mmHg 88%
    08:00 +21°C° 0,1 mm 2 m/s 751 mmHg 83%
    09:00 +23°C° 0,1 mm 2 m/s 751 mmHg 78%
    10:00 +23°C° 0,1 mm 2 m/s 751 mmHg 76%
    11:00 +23°C° 0,1 mm 2 m/s 751 mmHg 74%
    12:00 +24°C° 0,1 mm 2 m/s 751 mmHg 72%
    13:00 +24°C° 0,1 mm 2 m/s 751 mmHg 70%
    14:00 +25°C° 0,1 mm 2 m/s 751 mmHg 68%
    15:00 +25°C° 0,1 mm 2 m/s 751 mmHg 66%
    16:00 +24°C° 0,1 mm 2 m/s 751 mmHg 70%
    17:00 +24°C° 0,1 mm 1 m/s 751 mmHg 74%
    18:00 +23°C° 0,1 mm 1 m/s 751 mmHg 79%
    19:00 +22°C° 0 mm 1 m/s 751 mmHg 80%
    20:00 +21°C° 0 mm 1 m/s 751 mmHg 82%
    21:00 +19°C° 0 mm 0 m/s 752 mmHg 84%
    22:00 +18°C° 0 mm 0 m/s 752 mmHg 85%
    23:00 +18°C° 0 mm 0 m/s 751 mmHg 86%

    Après-demain, 21 Août, Mardi

    Heure Température Précipitation Vent Pression Humidité
    00:00 +20°C° 0 mm 1 m/s 751 mmHg 86%
    01:00 +19°C° 0 mm 1 m/s 751 mmHg 87%
    02:00 +19°C° 0 mm 1 m/s 751 mmHg 88%
    03:00 +19°C° 0 mm 1 m/s 751 mmHg 89%
    04:00 +19°C° 0 mm 1 m/s 751 mmHg 88%
    05:00 +20°C° 0 mm 1 m/s 751 mmHg 86%
    06:00 +20°C° 0 mm 1 m/s 751 mmHg 85%
    07:00 +19°C° 0,1 mm 0 m/s 751 mmHg 82%
    08:00 +20°C° 0,1 mm 0 m/s 751 mmHg 80%
    09:00 +21°C° 0,1 mm 0 m/s 751 mmHg 78%
    10:00 +22°C° 0,1 mm 0 m/s 751 mmHg 72%
    11:00 +25°C° 0,1 mm 1 m/s 751 mmHg 66%
    12:00 +26°C° 0,1 mm 1 m/s 751 mmHg 60%
    13:00 +27°C° 0 mm 1 m/s 751 mmHg 57%
    14:00 +27°C° 0 mm 1 m/s 750 mmHg 54%
    15:00 +28°C° 0 mm 1 m/s 750 mmHg 51%
    16:00 +27°C° 0 mm 1 m/s 750 mmHg 56%
    17:00 +26°C° 0 mm 1 m/s 750 mmHg 62%
    18:00 +23°C° 0 mm 0 m/s 750 mmHg 67%
    19:00 +22°C° 0 mm 0 m/s 750 mmHg 69%
    20:00 +20°C° 0 mm 0 m/s 750 mmHg 72%
    21:00 +19°C° 0 mm 0 m/s 750 mmHg 75%
    22:00 +19°C° 0 mm 0 m/s 750 mmHg 75%
    23:00 +19°C° 0 mm 0 m/s 750 mmHg 76%

    22 Août, Mercredi

    Heure Température Précipitation Vent Pression Humidité
    00:00 +19°C° 0 mm 0 m/s 750 mmHg 77%
    01:00 +21°C° 0 mm 1 m/s 750 mmHg 78%
    02:00 +20°C° 0 mm 1 m/s 750 mmHg 79%
    03:00 +20°C° 0 mm 1 m/s 749 mmHg 80%
    04:00 +20°C° 0 mm 1 m/s 749 mmHg 80%
    05:00 +21°C° 0 mm 1 m/s 749 mmHg 80%
    06:00 +21°C° 0 mm 1 m/s 750 mmHg 80%
    07:00 +22°C° 0 mm 1 m/s 750 mmHg 75%
    08:00 +24°C° 0 mm 1 m/s 750 mmHg 69%
    09:00 +26°C° 0 mm 1 m/s 750 mmHg 63%
    10:00 +27°C° 0,1 mm 1 m/s 749 mmHg 60%
    11:00 +28°C° 0,1 mm 2 m/s 749 mmHg 56%
    12:00 +28°C° 0,1 mm 2 m/s 749 mmHg 52%
    13:00 +28°C° 0,1 mm 2 m/s 749 mmHg 52%
    14:00 +28°C° 0,1 mm 2 m/s 749 mmHg 52%
    15:00 +28°C° 0,1 mm 2 m/s 748 mmHg 52%
    16:00 +27°C° 0,1 mm 2 m/s 748 mmHg 58%
    17:00 +26°C° 0,1 mm 2 m/s 748 mmHg 63%
    18:00 +25°C° 0,1 mm 1 m/s 748 mmHg 69%
    19:00 +24°C° 0 mm 1 m/s 748 mmHg 73%
    20:00 +22°C° 0 mm 1 m/s 749 mmHg 78%
    21:00 +21°C° 0 mm 1 m/s 749 mmHg 82%
    22:00 +20°C° 0 mm 1 m/s 749 mmHg 84%
    23:00 +20°C° 0 mm 1 m/s 748 mmHg 86%

    23 Août, Jeudi

    Heure Température Précipitation Vent Pression Humidité
    00:00 +17°C° 0 mm 0 m/s 748 mmHg 88%
    01:00 +19°C° 0 mm 1 m/s 748 mmHg 89%
    02:00 +19°C° 0 mm 1 m/s 748 mmHg 90%
    03:00 +19°C° 0 mm 1 m/s 747 mmHg 91%
    04:00 +19°C° 0 mm 1 m/s 747 mmHg 90%
    05:00 +19°C° 0 mm 1 m/s 747 mmHg 89%
    06:00 +20°C° 0 mm 1 m/s 747 mmHg 88%
    07:00 +21°C° 0 mm 2 m/s 747 mmHg 80%
    08:00 +23°C° 0 mm 2 m/s 747 mmHg 72%
    09:00 +25°C° 0 mm 3 m/s 747 mmHg 64%
    10:00 +26°C° 0 mm 3 m/s 747 mmHg 59%
    11:00 +27°C° 0 mm 4 m/s 746 mmHg 55%
    12:00 +28°C° 0 mm 4 m/s 746 mmHg 50%
    13:00 +28°C° 0 mm 4 m/s 745 mmHg 51%
    14:00 +28°C° 0 mm 4 m/s 745 mmHg 51%
    15:00 +28°C° 0 mm 4 m/s 744 mmHg 51%
    16:00 +27°C° 0,1 mm 4 m/s 744 mmHg 58%
    17:00 +26°C° 0,1 mm 3 m/s 744 mmHg 65%
    18:00 +24°C° 0,1 mm 3 m/s 744 mmHg 72%
    19:00 +22°C° 0,1 mm 3 m/s 744 mmHg 77%
    20:00 +20°C° 0,1 mm 3 m/s 744 mmHg 82%
    21:00 +19°C° 0,1 mm 3 m/s 744 mmHg 87%
    22:00 +19°C° 0,1 mm 3 m/s 744 mmHg 89%
    23:00 +18°C° 0,1 mm 3 m/s 743 mmHg 91%

    24 Août, Vendredi

    Heure Température Précipitation Vent Pression Humidité
    00:00 +18°C° 0,1 mm 3 m/s 743 mmHg 93%
    01:00 +17°C° 0,1 mm 3 m/s 743 mmHg 93%
    02:00 +16°C° 0,1 mm 3 m/s 743 mmHg 93%
    03:00 +16°C° 0,1 mm 3 m/s 743 mmHg 94%
    04:00 +16°C° 0,1 mm 3 m/s 743 mmHg 92%
    05:00 +14°C° 0,1 mm 4 m/s 744 mmHg 90%
    06:00 +14°C° 0,1 mm 4 m/s 744 mmHg 89%
    07:00 +14°C° 0,1 mm 4 m/s 744 mmHg 84%
    08:00 +14°C° 0,1 mm 4 m/s 745 mmHg 79%
    09:00 +15°C° 0,1 mm 5 m/s 745 mmHg 74%
    10:00 +16°C° 0 mm 5 m/s 745 mmHg 65%
    11:00 +17°C° 0 mm 6 m/s 746 mmHg 56%
    12:00 +19°C° 0 mm 6 m/s 746 mmHg 46%
    13:00 +19°C° 0 mm 6 m/s 746 mmHg 47%
    14:00 +17°C° 0 mm 6 m/s 746 mmHg 48%
    15:00 +17°C° 0 mm 5 m/s 746 mmHg 49%
    16:00 +16°C° 0 mm 5 m/s 746 mmHg 53%
    17:00 +17°C° 0 mm 4 m/s 747 mmHg 57%
    18:00 +16°C° 0 mm 3 m/s 747 mmHg 61%
    19:00 +13°C° 0 mm 3 m/s 747 mmHg 65%
    20:00 +13°C° 0 mm 2 m/s 748 mmHg 69%
    21:00 +12°C° 0 mm 2 m/s 748 mmHg 74%
    22:00 +12°C° 0 mm 2 m/s 748 mmHg 75%
    23:00 +11°C° 0 mm 3 m/s 748 mmHg 76%
    Voir plus